FW3579 Weather Reports


Display with metric or nautical units.
time (UTC)temp
F
wind
direction
speed
MPH
gust
MPH
rain 1hr
in
rain 24hr
in
rain mn
in
humidity
%
barometer
mb
20260902041516 58 182 1.0 2.0 0.00 0.00 0.00 71 1024.0
20260902040015 58 182 1.0 3.0 0.00 0.00 0.00 72 1024.0
20260902034514 58 184 0.0 2.0 0.00 0.00 0.00 71 1024.1
20260902033012 58 184 1.0 4.0 0.00 0.00 0.00 71 1024.0
20260902031511 59 185 1.0 2.0 0.00 0.00 0.00 71 1024.2
20260902030008 59 185 1.0 3.0 0.00 0.00 0.00 71 1024.2
20260902024507 59 360 0.0 3.0 0.00 0.00 0.00 71 1024.3
20260902023005 59 193 1.0 3.0 0.00 0.00 0.00 71 1024.5
20260902021600 59 360 0.0 3.0 0.00 0.00 0.00 71 1024.6
20260902020058 59 169 1.0 3.0 0.00 0.02 0.00 70 1024.5
20260902014558 59 169 1.0 4.0 0.00 0.02 0.00 70 1024.5
20260902013058 59 170 1.0 3.0 0.00 0.02 0.00 70 1024.5
20260902011558 59 182 1.0 2.0 0.00 0.02 0.00 71 1024.7
20260902004558 59 182 1.0 3.0 0.00 0.03 0.00 71 1024.7
20260902003057 58 182 0.0 2.0 0.00 0.03 0.00 70 1024.7
20260902001619 58 197 1.0 3.0 0.00 0.03 0.00 70 1024.8
20260902000103 58 360 1.0 3.0 0.00 0.03 0.00 70 1024.8
20260901234556 58 360 0.0 4.0 0.00 0.03 0.00 70 1024.9
20260901233057 58 360 1.0 3.0 0.00 0.03 0.00 70 1025.0
20260901231606 58 360 0.0 0.0 0.00 0.03 0.00 70 1025.1
20260901230057 58 261 0.0 0.0 0.00 0.03 0.00 70 1025.1
20260901224556 57 261 0.0 0.0 0.00 0.03 0.00 70 1025.3
20260901223058 57 360 0.0 0.0 0.00 0.03 0.00 69 1025.3
20260901221606 57 360 0.0 0.0 0.00 0.03 0.00 69 1025.3
20260901220113 57 262 0.0 0.0 0.00 0.09 0.00 69 1025.3
20260901214602 57 261 0.0 0.0 0.00 0.09 0.00 69 1025.3
20260901213055 57 261 0.0 0.0 0.00 0.09 0.00 68 1025.3
20260901211551 58 360 0.0 0.0 0.00 0.09 0.00 68 1025.3
20260901210050 58 360 0.0 0.0 0.00 0.09 0.00 67 1025.3
20260901204549 59 360 0.0 0.0 0.00 0.09 0.00 67 1025.5
20260901203055 59 360 0.0 0.0 0.00 0.09 0.00 67 1025.8
20260901201555 59 262 0.0 0.0 0.00 0.09 0.00 67 1025.9
20260901200055 58 261 0.0 0.0 0.00 0.09 0.00 67 1025.9
20260901194554 58 360 0.0 1.0 0.00 0.09 0.00 66 1025.7
20260901193055 59 261 0.0 0.0 0.00 0.09 0.00 65 1025.6
20260901191558 59 262 0.0 0.0 0.00 0.09 0.00 63 1025.5
20260901190047 60 262 0.0 0.0 0.00 0.09 0.00 63 1025.4
20260901184548 61 261 0.0 0.0 0.00 0.09 0.00 61 1025.2
20260901183049 63 360 0.0 1.0 0.00 0.09 0.00 59 1025.3
20260901181556 63 360 1.0 4.0 0.00 0.09 0.00 58 1025.2
20260901180049 64 360 1.0 4.0 0.00 0.09 0.00 58 1025.3
20260901174550 65 360 3.0 8.0 0.00 0.09 0.00 57 1025.4
20260901173058 66 360 3.0 9.0 0.00 0.09 0.00 55 1025.4
20260901171559 67 360 2.0 9.0 0.00 0.09 0.00 53 1025.4
20260901170046 67 360 4.0 9.0 0.00 0.09 0.00 52 1025.6
20260901164546 67 360 5.0 11.0 0.00 0.09 0.00 52 1025.7
20260901163044 67 360 5.0 11.0 0.00 0.09 0.00 53 1025.6
20260901161602 67 250 5.0 11.0 0.00 0.09 0.00 52 1025.7
20260901160045 68 360 4.0 12.0 0.00 0.09 0.00 52 1025.6
20260901154554 68 360 4.0 11.0 0.00 0.09 0.00 50 1025.6
20260901153051 68 360 4.0 11.0 0.00 0.09 0.00 51 1025.6
20260901151551 68 360 5.0 10.0 0.00 0.09 0.00 51 1025.6
20260901150050 68 360 3.0 11.0 0.00 0.09 0.00 51 1025.5
20260901144551 68 360 3.0 11.0 0.00 0.09 0.00 50 1025.5
20260901143050 69 360 4.0 10.0 0.00 0.09 0.00 51 1025.5
20260901141548 68 360 4.0 12.0 0.00 0.09 0.00 50 1025.6
20260901140042 69 360 3.0 11.0 0.00 0.09 0.00 51 1025.5
20260901134542 69 276 5.0 11.0 0.00 0.09 0.00 48 1025.5
20260901133041 69 360 3.0 11.0 0.00 0.09 0.00 53 1025.7
20260901131541 69 360 6.0 12.0 0.00 0.09 0.00 50 1025.7
20260901130042 69 360 4.0 12.0 0.00 0.09 0.00 51 1025.7
20260901124541 69 360 5.0 10.0 0.00 0.09 0.00 50 1025.8
20260901123037 69 360 4.0 10.0 0.00 0.09 0.00 52 1025.7
20260901121538 69 360 3.0 13.0 0.00 0.09 0.00 53 1025.7
20260901120035 69 360 5.0 13.0 0.00 0.09 0.00 53 1025.8
20260901114545 69 360 4.0 13.0 0.00 0.09 0.00 53 1025.7
20260901113034 69 360 5.0 13.0 0.00 0.09 0.00 51 1025.6
20260901111535 69 360 4.0 13.0 0.00 0.09 0.00 52 1025.7
20260901110031 69 360 5.0 12.0 0.00 0.09 0.00 50 1025.6
20260901104532 68 360 4.0 14.0 0.00 0.09 0.00 53 1025.6
20260901103028 68 360 4.0 13.0 0.00 0.09 0.00 53 1025.6
20260901101530 68 360 3.0 13.0 0.00 0.09 0.00 54 1025.5
20260901100024 68 360 5.0 10.0 0.00 0.13 0.00 52 1025.5
20260901094534 67 360 3.0 13.0 0.00 0.13 0.00 55 1025.3
20260901093020 67 360 5.0 11.0 0.00 0.13 0.00 54 1025.3
20260901091520 67 360 4.0 11.0 0.00 0.13 0.00 55 1025.2
20260901090015 66 360 4.0 11.0 0.00 0.13 0.00 56 1025.1
20260901084512 66 360 4.0 11.0 0.00 0.13 0.00 57 1025.1
20260901083010 0 0.0 0.0 0.00 0.13 0.00 1024.9
20260901081510 0 0.0 0.0 0.00 0.13 0.00 1024.8
20260901080007 64 360 5.0 9.0 0.00 0.13 0.00 61 1024.7
20260901074502 63 360 4.0 9.0 0.00 0.13 0.00 63 1024.5
20260901073103 62 267 4.0 9.0 0.00 0.13 0.00 66 1024.3
20260901071559 61 360 2.0 5.0 0.00 0.13 0.00 71 1024.2
20260901070105 60 360 1.0 6.0 0.00 0.15 0.00 75 1024.1
20260901064553 59 360 0.0 1.0 0.00 0.15 0.00 76 1024.0
20260901063052 59 360 0.0 1.0 0.00 0.15 0.00 75 1023.8
20260901061548 58 360 0.0 1.0 0.00 0.15 0.00 76 1023.7
20260901060045 58 360 0.0 3.0 0.00 0.17 0.00 76 1023.6
20260901054546 58 360 0.0 0.0 0.00 0.17 0.00 76 1023.4
20260901053047 59 360 0.0 0.0 0.00 0.17 0.00 76 1023.4
20260901051543 59 360 0.0 0.0 0.00 0.17 0.00 76 1023.2
20260901050040 59 360 0.0 0.0 0.00 0.23 0.00 76 1023.1
20260901044552 59 360 0.0 0.0 0.00 0.23 0.00 76 1022.9
20260901043038 59 360 0.0 0.0 0.00 0.23 0.00 76 1022.9